Time,TemperatureF,DewpointF,PressureIn,WindDirection,WindDirectionDegrees,WindSpeedMPH,WindSpeedGustMPH,Humidity,HourlyPrecipIn,Conditions,Clouds,dailyrainin,SoftwareType,DateUTC
2013-01-12 00:00:00,69.3,66.6,30.16,SE,142,0.0,3.0,91,0.00,,,0.01,meteohub,2013-01-12 05:00:00,
2013-01-12 00:02:00,69.3,66.6,30.16,SE,142,0.0,3.0,91,0.00,,,0.01,meteohub,2013-01-12 05:02:00,
2013-01-12 00:03:00,69.3,66.6,30.16,SE,142,2.0,3.0,91,0.00,,,0.01,meteohub,2013-01-12 05:03:00,
2013-01-12 00:09:00,69.3,66.9,30.16,SE,142,0.0,3.0,92,0.00,,,0.00,meteohub,2013-01-12 05:09:00,
2013-01-12 00:15:00,69.1,66.4,30.16,SE,142,0.0,2.0,91,0.00,,,0.00,meteohub,2013-01-12 05:15:00,
2013-01-12 00:21:00,68.7,66.4,30.16,SE,138,0.0,3.0,92,0.00,,,0.00,meteohub,2013-01-12 05:21:00,
2013-01-12 00:27:00,68.7,66.4,30.15,SSW,202,1.0,4.0,92,0.00,,,0.00,meteohub,2013-01-12 05:27:00,
2013-01-12 00:32:00,68.5,66.2,30.15,SSE,165,3.0,4.0,92,0.00,,,0.00,meteohub,2013-01-12 05:32:00,
2013-01-12 00:37:00,68.5,65.8,30.15,East,101,2.0,6.0,91,0.00,,,0.00,meteohub,2013-01-12 05:37:00,
2013-01-12 00:39:00,68.5,65.8,30.15,SE,129,8.0,8.0,91,0.00,,,0.00,meteohub,2013-01-12 05:39:00,
2013-01-12 00:45:00,68.5,65.8,30.15,SE,144,0.0,8.0,91,0.00,,,0.00,meteohub,2013-01-12 05:45:00,
2013-01-12 00:51:00,68.5,65.8,30.15,SSE,155,0.0,8.0,91,0.00,,,0.00,meteohub,2013-01-12 05:51:00,
2013-01-12 00:57:00,68.5,65.8,30.15,SE,134,2.0,4.0,91,0.00,,,0.00,meteohub,2013-01-12 05:57:00,
2013-01-12 01:02:00,68.4,65.7,30.14,SE,134,2.0,4.0,91,0.00,,,0.00,meteohub,2013-01-12 06:02:00,
2013-01-12 01:07:00,68.4,65.7,30.14,SSE,153,2.0,4.0,91,0.00,,,0.00,meteohub,2013-01-12 06:07:00,
2013-01-12 01:12:00,68.2,65.8,30.14,ESE,110,0.0,4.0,92,0.00,,,0.00,meteohub,2013-01-12 06:12:00,
2013-01-12 01:17:00,68.2,65.8,30.14,SSE,147,0.0,6.0,92,0.00,,,0.00,meteohub,2013-01-12 06:17:00,
2013-01-12 01:22:00,68.2,65.8,30.14,SE,130,0.0,6.0,92,0.00,,,0.00,meteohub,2013-01-12 06:22:00,
2013-01-12 01:27:00,68.2,65.8,30.14,ESE,111,2.0,4.0,92,0.00,,,0.00,meteohub,2013-01-12 06:27:00,
2013-01-12 01:32:00,67.8,65.5,30.14,SSE,153,1.0,5.0,92,0.00,,,0.00,meteohub,2013-01-12 06:32:00,
2013-01-12 01:37:00,67.8,65.5,30.14,SE,142,1.0,5.0,92,0.00,,,0.00,meteohub,2013-01-12 06:37:00,
2013-01-12 01:42:00,67.8,65.7,30.14,SE,127,1.0,5.0,93,0.00,,,0.00,meteohub,2013-01-12 06:42:00,
2013-01-12 01:47:00,67.8,65.5,30.14,ESE,115,0.0,4.0,92,0.00,,,0.00,meteohub,2013-01-12 06:47:00,
2013-01-12 01:52:00,67.8,65.7,30.14,South,178,0.0,4.0,93,0.00,,,0.00,meteohub,2013-01-12 06:52:00,
2013-01-12 01:57:00,67.6,65.5,30.14,ESE,112,1.0,4.0,93,0.00,,,0.00,meteohub,2013-01-12 06:57:00,
2013-01-12 02:02:00,67.6,65.5,30.14,SE,136,1.0,4.0,93,0.00,,,0.00,meteohub,2013-01-12 07:02:00,
2013-01-12 02:07:00,67.5,65.3,30.14,SE,138,1.0,4.0,93,0.00,,,0.00,meteohub,2013-01-12 07:07:00,
2013-01-12 02:12:00,67.5,65.3,30.14,SSE,152,1.0,3.0,93,0.00,,,0.00,meteohub,2013-01-12 07:12:00,
2013-01-12 02:17:00,67.3,65.1,30.14,SSE,152,0.0,4.0,93,0.00,,,0.00,meteohub,2013-01-12 07:17:00,
2013-01-12 02:22:00,67.3,65.1,30.14,SE,136,0.0,4.0,93,0.00,,,0.00,meteohub,2013-01-12 07:22:00,
2013-01-12 02:27:00,67.3,65.1,30.14,SE,136,0.0,3.0,93,0.00,,,0.00,meteohub,2013-01-12 07:27:00,
2013-01-12 02:32:00,67.1,65.3,30.13,SSE,149,0.0,3.0,94,0.00,,,0.00,meteohub,2013-01-12 07:32:00,
2013-01-12 02:37:00,66.9,65.1,30.13,SSE,161,0.0,2.0,94,0.00,,,0.00,meteohub,2013-01-12 07:37:00,
2013-01-12 02:42:00,66.9,65.1,30.13,SSE,161,0.0,2.0,94,0.00,,,0.00,meteohub,2013-01-12 07:42:00,
2013-01-12 02:47:00,66.7,64.9,30.13,SSE,161,0.0,2.0,94,0.00,,,0.00,meteohub,2013-01-12 07:47:00,
2013-01-12 02:52:00,66.7,64.9,30.13,SSE,161,0.0,2.0,94,0.00,,,0.00,meteohub,2013-01-12 07:52:00,
2013-01-12 02:57:00,66.7,64.9,30.13,SSE,161,0.0,2.0,94,0.00,,,0.00,meteohub,2013-01-12 07:57:00,
2013-01-12 03:02:00,66.6,64.8,30.13,SSE,161,0.0,2.0,94,0.00,,,0.00,meteohub,2013-01-12 08:02:00,
2013-01-12 03:07:00,66.4,64.6,30.13,SSE,161,0.0,1.0,94,0.00,,,0.00,meteohub,2013-01-12 08:07:00,
2013-01-12 03:12:00,66.2,64.4,30.13,SSE,161,0.0,1.0,94,0.00,,,0.00,meteohub,2013-01-12 08:12:00,
2013-01-12 03:17:00,66.0,64.2,30.13,SSE,161,0.0,1.0,94,0.00,,,0.00,meteohub,2013-01-12 08:17:00,
2013-01-12 03:22:00,65.8,64.4,30.13,SSE,161,0.0,0.0,95,0.00,,,0.00,meteohub,2013-01-12 08:22:00,
2013-01-12 03:27:00,65.7,64.2,30.13,SSE,161,0.0,0.0,95,0.00,,,0.00,meteohub,2013-01-12 08:27:00,
2013-01-12 03:32:00,65.7,64.2,30.13,SSE,161,0.0,1.0,95,0.00,,,0.00,meteohub,2013-01-12 08:32:00,
2013-01-12 03:37:00,65.5,64.0,30.13,SSE,161,0.0,1.0,95,0.00,,,0.00,meteohub,2013-01-12 08:37:00,
2013-01-12 03:42:00,65.7,64.4,30.13,SSE,161,0.0,1.0,96,0.00,,,0.00,meteohub,2013-01-12 08:42:00,
2013-01-12 03:47:00,65.7,64.4,30.13,SSE,161,1.0,1.0,96,0.00,,,0.00,meteohub,2013-01-12 08:47:00,
2013-01-12 03:52:00,65.7,64.4,30.12,SSE,161,0.0,1.0,96,0.00,,,0.00,meteohub,2013-01-12 08:52:00,
2013-01-12 03:57:00,65.7,64.4,30.12,SSE,161,0.0,1.0,96,0.00,,,0.00,meteohub,2013-01-12 08:57:00,
2013-01-12 04:02:00,65.7,64.4,30.12,SSE,161,0.0,1.0,96,0.00,,,0.00,meteohub,2013-01-12 09:02:00,
2013-01-12 04:07:00,65.8,64.6,30.12,SSE,161,0.0,1.0,96,0.00,,,0.00,meteohub,2013-01-12 09:07:00,
2013-01-12 04:12:00,65.7,64.4,30.12,SSE,161,0.0,1.0,96,0.00,,,0.00,meteohub,2013-01-12 09:12:00,
2013-01-12 04:17:00,65.7,64.4,30.12,SSE,161,0.0,1.0,96,0.00,,,0.00,meteohub,2013-01-12 09:17:00,
2013-01-12 04:22:00,65.7,64.4,30.12,SSE,161,0.0,1.0,96,0.00,,,0.00,meteohub,2013-01-12 09:22:00,
2013-01-12 04:27:00,65.7,64.4,30.12,SSE,161,0.0,1.0,96,0.00,,,0.00,meteohub,2013-01-12 09:27:00,
2013-01-12 04:32:00,65.7,64.8,30.12,SSE,159,0.0,2.0,97,0.00,,,0.00,meteohub,2013-01-12 09:32:00,
2013-01-12 04:37:00,65.8,64.9,30.12,SSE,159,0.0,3.0,97,0.00,,,0.00,meteohub,2013-01-12 09:37:00,
2013-01-12 04:42:00,65.8,64.6,30.12,SSE,159,2.0,3.0,96,0.00,,,0.00,meteohub,2013-01-12 09:42:00,
2013-01-12 04:47:00,65.7,64.4,30.12,SSE,159,0.0,2.0,96,0.00,,,0.00,meteohub,2013-01-12 09:47:00,
2013-01-12 04:52:00,65.5,64.2,30.12,SSE,159,0.0,2.0,96,0.00,,,0.00,meteohub,2013-01-12 09:52:00,
2013-01-12 04:58:00,65.5,64.2,30.12,SSE,159,0.0,2.0,96,0.00,,,0.00,meteohub,2013-01-12 09:58:00,
2013-01-12 05:04:00,65.5,64.6,30.12,SSE,159,0.0,1.0,97,0.00,,,0.00,meteohub,2013-01-12 10:04:00,
2013-01-12 05:10:00,65.5,64.6,30.12,SSE,159,0.0,2.0,97,0.00,,,0.00,meteohub,2013-01-12 10:10:00,
2013-01-12 05:16:00,65.5,64.6,30.12,SSE,150,0.0,2.0,97,0.00,,,0.00,meteohub,2013-01-12 10:16:00,
2013-01-12 05:22:00,65.7,64.8,30.12,SSE,150,0.0,2.0,97,0.00,,,0.00,meteohub,2013-01-12 10:22:00,
2013-01-12 05:27:00,65.7,64.8,30.12,SSE,150,0.0,2.0,97,0.00,,,0.00,meteohub,2013-01-12 10:27:00,
2013-01-12 05:32:00,65.7,64.8,30.12,SSE,148,0.0,2.0,97,0.00,,,0.00,meteohub,2013-01-12 10:32:00,
2013-01-12 05:37:00,65.7,64.8,30.12,SSE,148,0.0,2.0,97,0.00,,,0.00,meteohub,2013-01-12 10:37:00,
2013-01-12 05:42:00,65.7,64.8,30.12,SSE,148,0.0,2.0,97,0.00,,,0.00,meteohub,2013-01-12 10:42:00,
2013-01-12 05:47:00,65.7,64.8,30.12,SSE,148,0.0,1.0,97,0.00,,,0.00,meteohub,2013-01-12 10:47:00,
2013-01-12 05:52:00,65.7,64.8,30.12,SSE,148,0.0,1.0,97,0.00,,,0.00,meteohub,2013-01-12 10:52:00,
2013-01-12 05:57:00,65.7,64.8,30.12,SSE,148,0.0,1.0,97,0.00,,,0.00,meteohub,2013-01-12 10:57:00,
2013-01-12 06:02:00,65.5,64.6,30.12,East,88,0.0,1.0,97,0.00,,,0.00,meteohub,2013-01-12 11:02:00,
2013-01-12 06:07:00,65.5,64.6,30.12,East,88,0.0,3.0,97,0.00,,,0.00,meteohub,2013-01-12 11:07:00,
2013-01-12 06:12:00,65.5,64.6,30.12,East,88,0.0,3.0,97,0.00,,,0.00,meteohub,2013-01-12 11:12:00,
2013-01-12 06:17:00,65.3,64.4,30.13,East,88,0.0,3.0,97,0.00,,,0.00,meteohub,2013-01-12 11:17:00,
2013-01-12 06:22:00,65.5,64.6,30.13,East,88,0.0,2.0,97,0.00,,,0.00,meteohub,2013-01-12 11:22:00,
2013-01-12 06:27:00,65.3,64.4,30.13,East,88,2.0,3.0,97,0.00,,,0.00,meteohub,2013-01-12 11:27:00,
2013-01-12 06:32:00,65.3,64.4,30.13,East,88,1.0,3.0,97,0.00,,,0.00,meteohub,2013-01-12 11:32:00,
2013-01-12 06:37:00,65.1,64.2,30.13,East,88,0.0,3.0,97,0.00,,,0.00,meteohub,2013-01-12 11:37:00,
2013-01-12 06:42:00,65.1,64.2,30.13,East,88,1.0,2.0,97,0.00,,,0.00,meteohub,2013-01-12 11:42:00,
2013-01-12 06:47:00,65.3,64.4,30.13,East,88,0.0,3.0,97,0.00,,,0.00,meteohub,2013-01-12 11:47:00,
2013-01-12 06:52:00,65.3,64.4,30.13,East,88,1.0,3.0,97,0.00,,,0.00,meteohub,2013-01-12 11:52:00,
2013-01-12 06:57:00,65.1,64.2,30.14,East,88,2.0,3.0,97,0.00,,,0.00,meteohub,2013-01-12 11:57:00,
2013-01-12 07:02:00,65.1,64.2,30.14,East,88,0.0,2.0,97,0.00,,,0.00,meteohub,2013-01-12 12:02:00,
2013-01-12 07:07:00,65.1,64.2,30.14,East,88,1.0,2.0,97,0.00,,,0.00,meteohub,2013-01-12 12:07:00,
2013-01-12 07:12:00,64.9,64.0,30.14,East,88,0.0,2.0,97,0.00,,,0.00,meteohub,2013-01-12 12:12:00,
2013-01-12 07:17:00,64.9,64.0,30.14,East,88,0.0,2.0,97,0.00,,,0.00,meteohub,2013-01-12 12:17:00,
2013-01-12 07:22:00,64.9,64.0,30.14,East,88,0.0,2.0,97,0.00,,,0.00,meteohub,2013-01-12 12:22:00,
2013-01-12 07:27:00,64.9,64.0,30.15,East,88,0.0,2.0,97,0.00,,,0.00,meteohub,2013-01-12 12:27:00,
2013-01-12 07:32:00,64.9,64.0,30.15,East,88,0.0,2.0,97,0.00,,,0.00,meteohub,2013-01-12 12:32:00,
2013-01-12 07:37:00,65.1,64.2,30.15,East,88,0.0,1.0,97,0.00,,,0.00,meteohub,2013-01-12 12:37:00,
2013-01-12 07:42:00,65.3,64.8,30.15,East,88,1.0,1.0,98,0.00,,,0.00,meteohub,2013-01-12 12:42:00,
2013-01-12 07:47:00,65.5,64.9,30.15,ENE,68,0.0,2.0,98,0.00,,,0.00,meteohub,2013-01-12 12:47:00,
2013-01-12 07:52:00,65.7,64.8,30.15,East,94,2.0,4.0,97,0.00,,,0.00,meteohub,2013-01-12 12:52:00,
2013-01-12 07:57:00,65.8,64.9,30.15,SE,132,2.0,4.0,97,0.00,,,0.00,meteohub,2013-01-12 12:57:00,
2013-01-12 08:02:00,66.0,65.5,30.15,ENE,60,1.0,5.0,98,0.00,,,0.00,meteohub,2013-01-12 13:02:00,
2013-01-12 08:07:00,66.2,65.3,30.15,East,97,0.0,5.0,97,0.00,,,0.00,meteohub,2013-01-12 13:07:00,
2013-01-12 08:12:00,66.6,65.7,30.15,East,94,1.0,5.0,97,0.00,,,0.00,meteohub,2013-01-12 13:12:00,
2013-01-12 08:17:00,66.9,66.0,30.15,East,96,0.0,5.0,97,0.00,,,0.00,meteohub,2013-01-12 13:17:00,
2013-01-12 08:22:00,67.3,66.0,30.15,ESE,107,2.0,5.0,96,0.00,,,0.00,meteohub,2013-01-12 13:22:00,
2013-01-12 08:27:00,67.6,66.4,30.15,SE,138,2.0,5.0,96,0.00,,,0.00,meteohub,2013-01-12 13:27:00,
2013-01-12 08:32:00,68.0,66.2,30.15,ENE,74,1.0,5.0,94,0.00,,,0.00,meteohub,2013-01-12 13:32:00,
2013-01-12 08:37:00,68.4,66.6,30.15,East,82,1.0,4.0,94,0.00,,,0.00,meteohub,2013-01-12 13:37:00,
2013-01-12 08:42:00,68.5,66.4,30.15,SE,136,1.0,7.0,93,0.00,,,0.00,meteohub,2013-01-12 13:42:00,
2013-01-12 08:47:00,68.9,66.2,30.16,ESE,103,0.0,7.0,91,0.00,,,0.00,meteohub,2013-01-12 13:47:00,
2013-01-12 08:52:00,69.3,66.6,30.16,East,92,1.0,7.0,91,0.00,,,0.00,meteohub,2013-01-12 13:52:00,
2013-01-12 08:57:00,69.4,66.4,30.16,ENE,66,4.0,7.0,90,0.00,,,0.00,meteohub,2013-01-12 13:57:00,
2013-01-12 09:02:00,69.6,66.6,30.16,East,82,3.0,7.0,90,0.00,,,0.00,meteohub,2013-01-12 14:02:00,
2013-01-12 09:07:00,69.8,66.4,30.16,East,83,0.0,5.0,89,0.00,,,0.00,meteohub,2013-01-12 14:07:00,
2013-01-12 09:12:00,70.2,66.7,30.16,SSE,153,3.0,5.0,89,0.00,,,0.00,meteohub,2013-01-12 14:12:00,
2013-01-12 09:17:00,70.3,66.6,30.16,ENE,76,4.0,7.0,88,0.00,,,0.00,meteohub,2013-01-12 14:17:00,
2013-01-12 09:22:00,70.5,66.4,30.16,SE,126,4.0,7.0,87,0.00,,,0.00,meteohub,2013-01-12 14:22:00,
2013-01-12 09:27:00,70.9,66.7,30.16,SSE,148,2.0,7.0,87,0.00,,,0.00,meteohub,2013-01-12 14:27:00,
2013-01-12 09:32:00,71.2,66.9,30.16,East,83,5.0,7.0,86,0.00,,,0.00,meteohub,2013-01-12 14:32:00,
2013-01-12 09:37:00,71.2,67.1,30.16,SE,134,1.0,8.0,87,0.00,,,0.00,meteohub,2013-01-12 14:37:00,
2013-01-12 09:42:00,71.4,67.1,30.16,SSE,152,2.0,8.0,86,0.00,,,0.00,meteohub,2013-01-12 14:42:00,
2013-01-12 09:47:00,71.8,67.3,30.16,ENE,75,4.0,8.0,86,0.00,,,0.00,meteohub,2013-01-12 14:47:00,
2013-01-12 09:52:00,72.0,66.9,30.16,SE,138,3.0,7.0,84,0.00,,,0.00,meteohub,2013-01-12 14:52:00,
2013-01-12 09:57:00,72.1,66.7,30.16,SE,134,3.0,7.0,83,0.00,,,0.00,meteohub,2013-01-12 14:57:00,
2013-01-12 10:02:00,72.1,67.1,30.16,ENE,64,4.0,8.0,84,0.00,,,0.00,meteohub,2013-01-12 15:02:00,
2013-01-12 10:07:00,72.3,66.9,30.16,NNE,32,4.0,8.0,83,0.00,,,0.00,meteohub,2013-01-12 15:07:00,
2013-01-12 10:12:00,72.7,67.3,30.16,SE,128,6.0,8.0,83,0.00,,,0.00,meteohub,2013-01-12 15:12:00,
2013-01-12 10:17:00,72.7,66.9,30.16,East,82,6.0,8.0,82,0.00,,,0.00,meteohub,2013-01-12 15:17:00,
2013-01-12 10:22:00,73.0,67.3,30.16,NE,52,3.0,10.0,82,0.00,,,0.00,meteohub,2013-01-12 15:22:00,
2013-01-12 10:27:00,73.2,67.1,30.15,ENE,71,0.0,10.0,81,0.00,,,0.00,meteohub,2013-01-12 15:27:00,
2013-01-12 10:32:00,73.8,67.3,30.16,SSE,147,4.0,9.0,80,0.00,,,0.00,meteohub,2013-01-12 15:32:00,
2013-01-12 10:37:00,73.8,67.3,30.15,ENE,74,1.0,9.0,80,0.00,,,0.00,meteohub,2013-01-12 15:37:00,
2013-01-12 10:42:00,74.1,67.1,30.15,ESE,120,4.0,9.0,79,0.00,,,0.00,meteohub,2013-01-12 15:42:00,
2013-01-12 10:47:00,74.7,68.0,30.15,SSE,159,5.0,9.0,80,0.00,,,0.00,meteohub,2013-01-12 15:47:00,
2013-01-12 10:52:00,75.0,67.6,30.15,NE,46,3.0,8.0,78,0.00,,,0.00,meteohub,2013-01-12 15:52:00,
2013-01-12 10:57:00,75.4,68.4,30.14,SE,125,4.0,8.0,79,0.00,,,0.00,meteohub,2013-01-12 15:57:00,
2013-01-12 11:02:00,75.7,68.0,30.14,SSE,151,2.0,7.0,77,0.00,,,0.00,meteohub,2013-01-12 16:02:00,
2013-01-12 11:07:00,75.9,68.5,30.14,SE,124,4.0,8.0,78,0.00,,,0.00,meteohub,2013-01-12 16:07:00,
2013-01-12 11:12:00,76.3,68.5,30.14,SSE,156,1.0,8.0,77,0.00,,,0.00,meteohub,2013-01-12 16:12:00,
2013-01-12 11:17:00,76.6,68.5,30.14,ESE,120,2.0,8.0,76,0.00,,,0.00,meteohub,2013-01-12 16:17:00,
2013-01-12 11:22:00,77.0,68.9,30.13,SSE,153,2.0,8.0,76,0.00,,,0.00,meteohub,2013-01-12 16:22:00,
2013-01-12 11:27:00,77.2,68.7,30.13,ESE,120,4.0,12.0,75,0.00,,,0.00,meteohub,2013-01-12 16:27:00,
2013-01-12 11:32:00,77.5,68.9,30.12,SSE,147,4.0,12.0,75,0.00,,,0.00,meteohub,2013-01-12 16:32:00,
2013-01-12 11:37:00,77.7,69.1,30.12,SE,140,7.0,12.0,75,0.00,,,0.00,meteohub,2013-01-12 16:37:00,
2013-01-12 11:42:00,77.7,69.1,30.12,SE,140,6.0,9.0,75,0.00,,,0.00,meteohub,2013-01-12 16:42:00,
2013-01-12 11:47:00,77.5,68.9,30.12,East,84,2.0,10.0,75,0.00,,,0.00,meteohub,2013-01-12 16:47:00,
2013-01-12 11:52:00,77.5,68.9,30.12,ESE,118,1.0,10.0,75,0.00,,,0.00,meteohub,2013-01-12 16:52:00,
2013-01-12 11:57:00,78.1,69.1,30.11,East,88,1.0,10.0,74,0.00,,,0.00,meteohub,2013-01-12 16:57:00,
2013-01-12 12:02:00,78.4,69.1,30.11,SSE,153,2.0,8.0,73,0.00,,,0.00,meteohub,2013-01-12 17:02:00,
2013-01-12 12:07:00,78.4,68.7,30.11,NE,43,2.0,10.0,72,0.00,,,0.00,meteohub,2013-01-12 17:07:00,
2013-01-12 12:12:00,78.4,68.7,30.11,ESE,106,1.0,10.0,72,0.00,,,0.00,meteohub,2013-01-12 17:12:00,
2013-01-12 12:17:00,78.8,69.1,30.10,ESE,109,4.0,10.0,72,0.00,,,0.00,meteohub,2013-01-12 17:17:00,
2013-01-12 12:22:00,79.5,69.3,30.10,ENE,65,1.0,10.0,71,0.00,,,0.00,meteohub,2013-01-12 17:22:00,
2013-01-12 12:27:00,80.2,69.6,30.09,West,269,2.0,10.0,70,0.00,,,0.00,meteohub,2013-01-12 17:27:00,
2013-01-12 12:32:00,80.2,69.1,30.09,ESE,118,0.0,9.0,69,0.00,,,0.00,meteohub,2013-01-12 17:32:00,
2013-01-12 12:37:00,79.9,68.7,30.09,SE,130,1.0,8.0,69,0.00,,,0.00,meteohub,2013-01-12 17:37:00,
2013-01-12 12:42:00,79.3,68.7,30.09,NE,46,1.0,10.0,70,0.00,,,0.00,meteohub,2013-01-12 17:42:00,
2013-01-12 12:47:00,79.2,68.2,30.09,East,87,0.0,10.0,69,0.00,,,0.00,meteohub,2013-01-12 17:47:00,
2013-01-12 12:52:00,79.2,68.5,30.09,SE,139,4.0,10.0,70,0.00,,,0.00,meteohub,2013-01-12 17:52:00,
2013-01-12 12:57:00,79.5,68.5,30.08,SSE,151,6.0,10.0,69,0.00,,,0.00,meteohub,2013-01-12 17:57:00,
2013-01-12 13:02:00,79.5,68.5,30.08,ESE,113,1.0,10.0,69,0.00,,,0.00,meteohub,2013-01-12 18:02:00,
2013-01-12 13:07:00,79.3,67.8,30.08,West,281,1.0,8.0,68,0.00,,,0.00,meteohub,2013-01-12 18:07:00,
2013-01-12 13:12:00,79.5,68.0,30.08,ESE,120,1.0,8.0,68,0.00,,,0.00,meteohub,2013-01-12 18:12:00,
2013-01-12 13:17:00,80.1,68.9,30.08,SE,130,4.0,8.0,69,0.00,,,0.00,meteohub,2013-01-12 18:17:00,
2013-01-12 13:22:00,79.9,68.7,30.07,ESE,113,3.0,8.0,69,0.00,,,0.00,meteohub,2013-01-12 18:22:00,
2013-01-12 13:27:00,79.9,68.7,30.08,South,170,2.0,8.0,69,0.00,,,0.00,meteohub,2013-01-12 18:27:00,
2013-01-12 13:32:00,80.1,68.5,30.07,ENE,57,0.0,7.0,68,0.00,,,0.00,meteohub,2013-01-12 18:32:00,
2013-01-12 13:37:00,79.9,68.4,30.07,SSE,150,1.0,7.0,68,0.00,,,0.00,meteohub,2013-01-12 18:37:00,
2013-01-12 13:42:00,79.9,68.7,30.07,SSE,148,2.0,7.0,69,0.00,,,0.00,meteohub,2013-01-12 18:42:00,
2013-01-12 13:47:00,80.2,68.4,30.08,East,100,1.0,7.0,67,0.00,,,0.00,meteohub,2013-01-12 18:47:00,
2013-01-12 13:52:00,80.2,68.4,30.07,East,89,3.0,7.0,67,0.00,,,0.00,meteohub,2013-01-12 18:52:00,
2013-01-12 13:57:00,80.4,68.0,30.07,East,86,3.0,8.0,66,0.00,,,0.00,meteohub,2013-01-12 18:57:00,
2013-01-12 14:02:00,80.6,68.2,30.07,SE,126,2.0,8.0,66,0.00,,,0.00,meteohub,2013-01-12 19:02:00,
2013-01-12 14:07:00,80.6,69.1,30.06,SE,132,3.0,9.0,68,0.00,,,0.00,meteohub,2013-01-12 19:07:00,
2013-01-12 14:12:00,80.4,68.5,30.06,ESE,123,4.0,9.0,67,0.00,,,0.00,meteohub,2013-01-12 19:12:00,
2013-01-12 14:17:00,80.2,68.4,30.06,SE,141,2.0,9.0,67,0.00,,,0.00,meteohub,2013-01-12 19:17:00,
2013-01-12 14:22:00,80.8,68.7,30.06,SE,124,3.0,8.0,67,0.00,,,0.00,meteohub,2013-01-12 19:22:00,
2013-01-12 14:27:00,81.1,68.7,30.06,East,87,3.0,10.0,66,0.00,,,0.00,meteohub,2013-01-12 19:27:00,
2013-01-12 14:32:00,81.5,68.5,30.06,South,179,1.0,10.0,65,0.00,,,0.00,meteohub,2013-01-12 19:32:00,
2013-01-12 14:37:00,82.2,68.4,30.06,East,82,2.0,7.0,63,0.00,,,0.00,meteohub,2013-01-12 19:37:00,
2013-01-12 14:42:00,82.6,68.2,30.06,ESE,113,4.0,6.0,62,0.00,,,0.00,meteohub,2013-01-12 19:42:00,
2013-01-12 14:47:00,82.2,68.9,30.06,NE,47,2.0,6.0,64,0.00,,,0.00,meteohub,2013-01-12 19:47:00,
2013-01-12 14:52:00,82.0,67.6,30.06,ENE,78,1.0,6.0,62,0.00,,,0.00,meteohub,2013-01-12 19:52:00,
2013-01-12 14:57:00,82.0,67.6,30.06,ESE,111,2.0,6.0,62,0.00,,,0.00,meteohub,2013-01-12 19:57:00,
2013-01-12 15:02:00,82.0,68.2,30.06,ENE,69,3.0,6.0,63,0.00,,,0.00,meteohub,2013-01-12 20:02:00,
2013-01-12 15:07:00,82.2,67.8,30.06,SE,142,3.0,6.0,62,0.00,,,0.00,meteohub,2013-01-12 20:07:00,
2013-01-12 15:12:00,82.6,67.8,30.06,SE,124,2.0,7.0,61,0.00,,,0.00,meteohub,2013-01-12 20:12:00,
2013-01-12 15:17:00,82.4,68.0,30.06,East,86,3.0,7.0,62,0.00,,,0.00,meteohub,2013-01-12 20:17:00,
2013-01-12 15:23:00,82.8,67.5,30.06,ENE,61,2.0,7.0,60,0.00,,,0.00,meteohub,2013-01-12 20:23:00,
2013-01-12 15:29:00,82.4,67.1,30.06,NE,56,1.0,7.0,60,0.00,,,0.00,meteohub,2013-01-12 20:29:00,
2013-01-12 15:35:00,82.0,66.7,30.07,NE,37,4.0,6.0,60,0.00,,,0.00,meteohub,2013-01-12 20:35:00,
2013-01-12 15:41:00,81.1,66.4,30.07,SE,136,0.0,8.0,61,0.00,,,0.00,meteohub,2013-01-12 20:41:00,
2013-01-12 15:47:00,81.1,66.4,30.07,SE,136,0.0,8.0,61,0.00,,,0.00,meteohub,2013-01-12 20:47:00,
2013-01-12 15:52:00,81.0,66.7,30.07,ESE,116,1.0,7.0,62,0.00,,,0.00,meteohub,2013-01-12 20:52:00,
2013-01-12 15:57:00,80.8,66.6,30.08,East,94,0.0,3.0,62,0.00,,,0.00,meteohub,2013-01-12 20:57:00,
2013-01-12 16:02:00,80.4,66.2,30.08,East,94,1.0,3.0,62,0.00,,,0.00,meteohub,2013-01-12 21:02:00,
2013-01-12 16:07:00,80.2,67.8,30.08,NW,321,1.0,3.0,66,0.00,,,0.00,meteohub,2013-01-12 21:07:00,
2013-01-12 16:12:00,78.4,67.8,30.08,WNW,290,3.0,4.0,70,0.00,,,0.00,meteohub,2013-01-12 21:12:00,
2013-01-12 16:17:00,77.5,68.5,30.08,WSW,240,3.0,8.0,74,0.00,,,0.00,meteohub,2013-01-12 21:17:00,
2013-01-12 16:22:00,77.5,68.5,30.09,WSW,248,4.0,9.0,74,0.00,,,0.00,meteohub,2013-01-12 21:22:00,
2013-01-12 16:27:00,76.8,68.4,30.09,West,273,5.0,9.0,75,0.00,,,0.00,meteohub,2013-01-12 21:27:00,
2013-01-12 16:32:00,76.8,68.7,30.09,WSW,257,2.0,9.0,76,0.00,,,0.00,meteohub,2013-01-12 21:32:00,
2013-01-12 16:38:00,77.4,68.9,30.09,WNW,282,2.0,8.0,75,0.00,,,0.00,meteohub,2013-01-12 21:38:00,
2013-01-12 16:44:00,77.4,68.4,30.09,WNW,294,4.0,8.0,74,0.00,,,0.00,meteohub,2013-01-12 21:44:00,
2013-01-12 16:50:00,76.8,68.7,30.09,SW,236,3.0,6.0,76,0.00,,,0.00,meteohub,2013-01-12 21:50:00,
2013-01-12 16:56:00,76.5,68.4,30.09,WSW,238,2.0,6.0,76,0.00,,,0.00,meteohub,2013-01-12 21:56:00,
2013-01-12 17:02:00,75.9,68.2,30.09,West,265,2.0,7.0,77,0.00,,,0.00,meteohub,2013-01-12 22:02:00,
2013-01-12 17:07:00,75.6,67.8,30.08,West,269,2.0,7.0,77,0.00,,,0.00,meteohub,2013-01-12 22:07:00,
2013-01-12 17:12:00,75.6,68.2,30.08,West,260,2.0,7.0,78,0.00,,,0.00,meteohub,2013-01-12 22:12:00,
2013-01-12 17:17:00,75.0,68.0,30.08,WSW,247,3.0,7.0,79,0.00,,,0.00,meteohub,2013-01-12 22:17:00,
2013-01-12 17:22:00,74.8,68.2,30.08,West,268,1.0,6.0,80,0.00,,,0.00,meteohub,2013-01-12 22:22:00,
2013-01-12 17:27:00,74.7,68.0,30.09,West,268,1.0,5.0,80,0.00,,,0.00,meteohub,2013-01-12 22:27:00,
2013-01-12 17:32:00,74.3,68.0,30.09,West,268,0.0,4.0,81,0.00,,,0.00,meteohub,2013-01-12 22:32:00,
2013-01-12 17:37:00,73.9,68.2,30.09,West,268,1.0,3.0,82,0.00,,,0.00,meteohub,2013-01-12 22:37:00,
2013-01-12 17:44:00,73.4,67.6,30.09,West,268,1.0,3.0,82,0.00,,,0.00,meteohub,2013-01-12 22:44:00,
2013-01-12 17:50:00,73.0,67.6,30.09,West,268,1.0,3.0,83,0.00,,,0.00,meteohub,2013-01-12 22:50:00,
2013-01-12 17:56:00,72.7,67.6,30.09,West,268,0.0,3.0,84,0.00,,,0.00,meteohub,2013-01-12 22:56:00,
2013-01-12 18:02:00,72.5,67.5,30.09,West,268,0.0,2.0,84,0.00,,,0.00,meteohub,2013-01-12 23:02:00,
2013-01-12 18:07:00,72.3,67.6,30.09,West,268,0.0,1.0,85,0.00,,,0.00,meteohub,2013-01-12 23:07:00,
2013-01-12 18:12:00,72.1,67.5,30.09,West,268,0.0,1.0,85,0.00,,,0.00,meteohub,2013-01-12 23:12:00,
2013-01-12 18:17:00,71.8,67.1,30.09,West,268,1.0,1.0,85,0.00,,,0.00,meteohub,2013-01-12 23:17:00,
2013-01-12 18:22:00,71.4,67.1,30.09,West,268,0.0,2.0,86,0.00,,,0.00,meteohub,2013-01-12 23:22:00,
2013-01-12 18:27:00,71.4,67.1,30.09,West,268,0.0,2.0,86,0.00,,,0.00,meteohub,2013-01-12 23:27:00,
2013-01-12 18:32:00,71.2,66.9,30.09,West,268,0.0,2.0,86,0.00,,,0.00,meteohub,2013-01-12 23:32:00,
2013-01-12 18:39:00,71.2,67.1,30.09,West,268,0.0,1.0,87,0.00,,,0.00,meteohub,2013-01-12 23:39:00,
2013-01-12 18:45:00,71.1,66.9,30.09,West,268,0.0,1.0,87,0.00,,,0.00,meteohub,2013-01-12 23:45:00,
2013-01-12 18:51:00,70.9,66.7,30.09,West,268,0.0,1.0,87,0.00,,,0.00,meteohub,2013-01-12 23:51:00,
2013-01-12 18:57:00,70.9,67.1,30.09,West,268,0.0,1.0,88,0.00,,,0.00,meteohub,2013-01-12 23:57:00,
2013-01-12 19:02:00,70.7,66.9,30.09,West,268,1.0,1.0,88,0.00,,,0.00,meteohub,2013-01-13 00:02:00,
2013-01-12 19:07:00,70.5,66.7,30.09,West,268,0.0,1.0,88,0.00,,,0.00,meteohub,2013-01-13 00:07:00,
2013-01-12 19:12:00,70.3,66.9,30.09,West,268,0.0,1.0,89,0.00,,,0.00,meteohub,2013-01-13 00:12:00,
2013-01-12 19:18:00,70.3,66.9,30.09,West,268,0.0,1.0,89,0.00,,,0.00,meteohub,2013-01-13 00:18:00,
2013-01-12 19:24:00,70.2,66.7,30.09,West,268,0.0,1.0,89,0.00,,,0.00,meteohub,2013-01-13 00:24:00,
2013-01-12 19:30:00,70.2,67.1,30.09,West,268,0.0,1.0,90,0.00,,,0.00,meteohub,2013-01-13 00:30:00,
2013-01-12 19:36:00,70.0,66.9,30.09,West,268,0.0,2.0,90,0.00,,,0.00,meteohub,2013-01-13 00:36:00,
2013-01-12 19:42:00,70.0,66.9,30.09,West,268,0.0,2.0,90,0.00,,,0.00,meteohub,2013-01-13 00:42:00,
2013-01-12 19:47:00,69.8,66.7,30.09,West,268,0.0,2.0,90,0.00,,,0.00,meteohub,2013-01-13 00:47:00,
2013-01-12 19:52:00,69.6,66.6,30.09,West,268,0.0,1.0,90,0.00,,,0.00,meteohub,2013-01-13 00:52:00,
2013-01-12 19:57:00,69.6,66.6,30.09,West,268,0.0,1.0,90,0.00,,,0.00,meteohub,2013-01-13 00:57:00,
2013-01-12 20:02:00,69.6,66.6,30.09,West,268,0.0,1.0,90,0.00,,,0.00,meteohub,2013-01-13 01:02:00,
2013-01-12 20:07:00,69.4,66.7,30.08,West,268,0.0,0.0,91,0.00,,,0.00,meteohub,2013-01-13 01:07:00,
2013-01-12 20:12:00,69.3,66.6,30.08,West,268,0.0,1.0,91,0.00,,,0.00,meteohub,2013-01-13 01:12:00,
2013-01-12 20:17:00,69.3,66.6,30.08,West,268,0.0,1.0,91,0.00,,,0.00,meteohub,2013-01-13 01:17:00,
2013-01-12 20:22:00,69.3,66.6,30.08,West,268,0.0,1.0,91,0.00,,,0.00,meteohub,2013-01-13 01:22:00,
2013-01-12 20:27:00,69.1,66.4,30.08,West,268,0.0,1.0,91,0.00,,,0.00,meteohub,2013-01-13 01:27:00,
2013-01-12 20:34:00,68.9,66.6,30.07,West,268,0.0,1.0,92,0.00,,,0.00,meteohub,2013-01-13 01:34:00,
2013-01-12 20:40:00,68.9,66.6,30.08,West,268,0.0,1.0,92,0.00,,,0.00,meteohub,2013-01-13 01:40:00,
2013-01-12 20:46:00,68.9,66.6,30.08,West,268,0.0,1.0,92,0.00,,,0.00,meteohub,2013-01-13 01:46:00,
2013-01-12 20:52:00,68.7,66.4,30.07,West,268,0.0,1.0,92,0.00,,,0.00,meteohub,2013-01-13 01:52:00,
2013-01-12 20:57:00,68.9,66.6,30.07,West,268,0.0,1.0,92,0.00,,,0.00,meteohub,2013-01-13 01:57:00,
2013-01-12 21:02:00,69.1,66.7,30.07,West,268,0.0,1.0,92,0.00,,,0.00,meteohub,2013-01-13 02:02:00,
2013-01-12 21:07:00,69.1,66.7,30.07,West,268,0.0,1.0,92,0.00,,,0.00,meteohub,2013-01-13 02:07:00,
2013-01-12 21:12:00,69.1,66.7,30.07,West,268,0.0,1.0,92,0.00,,,0.00,meteohub,2013-01-13 02:12:00,
2013-01-12 21:17:00,69.1,66.7,30.07,West,268,0.0,1.0,92,0.00,,,0.00,meteohub,2013-01-13 02:17:00,
2013-01-12 21:22:00,69.1,66.7,30.07,West,268,0.0,1.0,92,0.00,,,0.00,meteohub,2013-01-13 02:22:00,
2013-01-12 21:28:00,68.9,66.6,30.07,West,268,0.0,1.0,92,0.00,,,0.00,meteohub,2013-01-13 02:28:00,
2013-01-12 21:34:00,68.5,66.2,30.07,West,268,0.0,1.0,92,0.00,,,0.00,meteohub,2013-01-13 02:34:00,
2013-01-12 21:40:00,68.5,66.2,30.06,West,268,0.0,1.0,92,0.00,,,0.00,meteohub,2013-01-13 02:40:00,
2013-01-12 21:46:00,68.4,66.0,30.06,West,268,0.0,0.0,92,0.00,,,0.00,meteohub,2013-01-13 02:46:00,
2013-01-12 21:52:00,68.4,66.0,30.07,West,268,0.0,0.0,92,0.00,,,0.00,meteohub,2013-01-13 02:52:00,
2013-01-12 21:57:00,68.2,66.0,30.06,West,268,0.0,0.0,93,0.00,,,0.00,meteohub,2013-01-13 02:57:00,
2013-01-12 22:02:00,68.2,66.0,30.07,West,268,0.0,0.0,93,0.00,,,0.00,meteohub,2013-01-13 03:02:00,
2013-01-12 22:07:00,67.8,65.7,30.07,West,268,0.0,0.0,93,0.00,,,0.00,meteohub,2013-01-13 03:07:00,
2013-01-12 22:12:00,67.6,65.8,30.07,West,268,0.0,1.0,94,0.00,,,0.00,meteohub,2013-01-13 03:12:00,
2013-01-12 22:17:00,67.5,65.7,30.07,West,268,0.0,1.0,94,0.00,,,0.00,meteohub,2013-01-13 03:17:00,
2013-01-12 22:22:00,67.5,65.7,30.07,West,268,0.0,1.0,94,0.00,,,0.00,meteohub,2013-01-13 03:22:00,
2013-01-12 22:27:00,67.5,65.7,30.08,West,268,0.0,1.0,94,0.00,,,0.00,meteohub,2013-01-13 03:27:00,
2013-01-12 22:32:00,67.3,65.5,30.08,West,268,0.0,1.0,94,0.00,,,0.00,meteohub,2013-01-13 03:32:00,
2013-01-12 22:37:00,67.3,65.5,30.08,West,268,0.0,1.0,94,0.00,,,0.00,meteohub,2013-01-13 03:37:00,
2013-01-12 22:42:00,67.1,65.7,30.08,West,268,0.0,1.0,95,0.00,,,0.00,meteohub,2013-01-13 03:42:00,
2013-01-12 22:47:00,67.3,65.8,30.08,West,268,0.0,1.0,95,0.00,,,0.00,meteohub,2013-01-13 03:47:00,
2013-01-12 22:52:00,67.3,65.8,30.08,West,268,0.0,1.0,95,0.00,,,0.00,meteohub,2013-01-13 03:52:00,
2013-01-12 22:57:00,67.5,66.2,30.07,West,268,0.0,1.0,96,0.00,,,0.00,meteohub,2013-01-13 03:57:00,
2013-01-12 23:02:00,67.6,66.4,30.07,West,268,0.0,1.0,96,0.00,,,0.00,meteohub,2013-01-13 04:02:00,
2013-01-12 23:07:00,67.6,66.4,30.07,ESE,102,0.0,1.0,96,0.00,,,0.00,meteohub,2013-01-13 04:07:00,
2013-01-12 23:12:00,68.0,66.7,30.07,SE,132,1.0,5.0,96,0.00,,,0.00,meteohub,2013-01-13 04:12:00,
2013-01-12 23:17:00,68.4,67.1,30.07,South,179,2.0,5.0,96,0.00,,,0.00,meteohub,2013-01-13 04:17:00,
2013-01-12 23:22:00,68.7,66.9,30.07,South,177,2.0,5.0,94,0.00,,,0.00,meteohub,2013-01-13 04:22:00,
2013-01-12 23:27:00,69.1,66.7,30.07,South,179,2.0,5.0,92,0.00,,,0.00,meteohub,2013-01-13 04:27:00,
2013-01-12 23:32:00,69.4,66.4,30.07,South,186,2.0,6.0,90,0.00,,,0.00,meteohub,2013-01-13 04:32:00,
2013-01-12 23:37:00,69.8,66.0,30.07,SSE,153,0.0,6.0,88,0.00,,,0.00,meteohub,2013-01-13 04:37:00,
2013-01-12 23:42:00,70.0,66.0,30.07,SSE,148,0.0,6.0,87,0.00,,,0.00,meteohub,2013-01-13 04:42:00,
2013-01-12 23:47:00,70.2,65.8,30.07,South,172,0.0,5.0,86,0.00,,,0.00,meteohub,2013-01-13 04:47:00,
2013-01-12 23:52:00,70.3,65.7,30.07,ENE,68,0.0,5.0,85,0.00,,,0.00,meteohub,2013-01-13 04:52:00,
2013-01-12 23:57:00,70.3,65.7,30.08,SE,133,0.0,7.0,85,0.00,,,0.00,meteohub,2013-01-13 04:57:00,